Home > Weather > Lancy > Past weeks

Flag for Switzerland Past Weather in Lancy, Geneva, Switzerland — Yesterday and Last 2 Weeks

Now
55 °F

Clear.


Feels Like: 55 °F
Forecast: 57 / 78 °F
Wind: 1 mph from North

Location: Geneva Cointrin Airport

Current Time: May 27, 2016 at 6:52:58 AM

Latest Report: May 27, 2016 at 6:20 AM


Visibility: 10 mi

Pressure: 29.98 "Hg

Humidity: 88%

Dew Point: 52 °F

Location of LancyLocation

Past Weather in Lancy — Graph

°F

Lancy Temperature Yesterday

Maximum temperature yesterday: 72 °F (at 4:50 PM)
Minimum temperature yesterday: 50 °F (at 3:50 AM)
Average temperature yesterday: 60 °F

High & Low Weather Summary for the Past Weeks

 TemperatureHumidityPressure
High79 °F (May 21, 5:20 PM)100% (May 12, 5:20 AM)30.21 "Hg (May 12, 5:20 AM)
Low36 °F (May 16, 5:50 AM)31% (May 18, 4:20 PM)29.56 "Hg (May 12, 5:20 AM)
Average55 °F71%29.97 "Hg
* Reported May 12 5:20 AM — May 27 5:50 AM, Lancy, Weather by CustomWeather, © 2016

Note: Actual official high and low records may vary slightly from our data, if they occured in-between our weather recording intervals... More about our weather records

Advertising

Lancy Weather History for the Previous 24 Hours

Scroll right to see more
 ConditionsComfort  
Time TempWeatherWind HumidityBarometerVisibility
5:50 AM
Fri, May 27
55 °FClear.1 mph88%29.98 "Hg10 mi
5:20 AM55 °FClear.1 mph94%29.98 "Hg10 mi
4:50 AM55 °FClear.2 mph94%29.98 "Hg10 mi
4:20 AM55 °FClear.1 mph88%29.98 "Hg10 mi
3:50 AM54 °FClear.2 mph94%29.98 "Hg10 mi
2:50 AM54 °FClear.1 mph94%29.95 "Hg10 mi
2:20 AM54 °FClear.1 mph94%29.95 "Hg10 mi
1:50 AM55 °FClear.1 mph88%29.95 "Hg10 mi
1:20 AM55 °FClear.1 mph94%29.98 "Hg10 mi
12:50 AM55 °FClear.1 mph94%29.98 "Hg10 mi
12:20 AM57 °FClear.2 mph82%29.98 "Hg10 mi
11:50 PM
Thu, May 26
57 °FClear.1 mph82%29.98 "Hg10 mi
11:20 PM59 °FClear.1 mph82%29.95 "Hg10 mi
10:50 PM59 °FClear.1 mph82%29.95 "Hg10 mi
10:20 PM61 °FClear.1 mph72%29.95 "Hg10 mi
9:50 PM61 °FSunny.1 mph72%29.95 "Hg10 mi
9:20 PM64 °FSunny.No wind64%29.92 "Hg10 mi
8:50 PM66 °FSunny.3 mph60%29.92 "Hg10 mi
8:20 PM66 °FScattered clouds.3 mph56%29.92 "HgN/A
7:50 PM68 °FPartly sunny.2 mph60%29.92 "HgN/A
7:20 PM68 °FPartly sunny.2 mph56%29.92 "HgN/A
6:50 PM68 °FBroken clouds.5 mph56%29.92 "HgN/A
6:20 PM70 °FBroken clouds.5 mph50%29.95 "HgN/A
5:50 PM72 °FBroken clouds.3 mph50%29.95 "HgN/A
5:20 PM70 °FBroken clouds.3 mph57%29.95 "HgN/A
4:50 PM72 °FBroken clouds.3 mph53%29.95 "HgN/A
3:50 PM68 °FBroken clouds.5 mph56%29.98 "HgN/A
3:20 PM66 °FBroken clouds.6 mph56%29.98 "HgN/A
2:50 PM68 °FBroken clouds.3 mph56%29.98 "HgN/A
2:20 PM68 °FBroken clouds.2 mph56%29.98 "HgN/A
1:50 PM68 °FBroken clouds.2 mph60%30.01 "HgN/A
1:20 PM66 °FBroken clouds.5 mph64%30.01 "HgN/A
12:50 PM66 °FBroken clouds.2 mph68%30.01 "HgN/A
12:20 PM64 °FBroken clouds.3 mph64%30.01 "HgN/A
11:50 AM63 °FPartly sunny.2 mph73%30.01 "HgN/A
11:20 AM61 °FPartly sunny.2 mph88%30.01 "HgN/A
10:50 AM59 °FBroken clouds.3 mph88%30.01 "HgN/A
10:20 AM57 °FScattered clouds.2 mph94%30.04 "Hg5 mi
9:50 AM55 °FFog.2 mph94%30.04 "Hg3 mi
9:20 AM54 °FFog.2 mph94%30.04 "Hg3 mi
8:50 AM54 °FFog.2 mph94%30.01 "Hg3 mi
8:20 AM52 °FFog.2 mph100%30.04 "Hg3 mi
7:50 AM52 °FPartly sunny.1 mph94%30.01 "Hg1 mi
7:20 AM50 °FPartly sunny.1 mph100%30.04 "Hg1 mi
6:50 AM50 °FPassing clouds.1 mph100%30.04 "Hg1 mi
6:20 AM50 °FFog.2 mph94%30.01 "Hg0 mi
Weather by CustomWeather, © 2016

See weather overviewHow to use our weather pages